SCP
0 0 0 0 0 0 0 0 0 0 0 0 0 0 0 0 0 0 0 0 0 0 0 0 0 0 0 1 1 1 0 0 0 0 0 0 0 0 0 0 0 0 0 0
0 0 0 0 0 0 0 0 0 0 0 0 0 0 0 0 0 0 0 0 0 0 1 1 0 0 1 1 1 1 0 0 0 0 0 0 0 0 0 0 0 0 0 0
0 0 0 0 0 0 0 0 0 0 0 0 0 0 0 0 0 0 0 0 0 1 1 1 1 1 1 1 1 1 1 1 0 0 0 0 0 0 0 0 0 0 0 0
0 0 0 0 0 0 0 0 0 0 0 0 0 0 0 0 0 0 0 0 0 1 1 1 1 1 1 1 1 1 1 1 1 1 1 1 1 1 0 0 0 0 0 0
0 0 0 0 0 0 0 0 0 0 0 0 0 0 0 0 0 0 0 0 0 1 1 1 1 1 1 1 1 1 1 1 1 1 1 1 1 1 1 0 0 0 0 0
0 0 0 0 0 0 0 0 0 0 0 0 0 0 0 0 0 0 0 1 1 1 1 1 1 1 1 1 1 1 1 1 1 1 1 1 1 1 1 1 0 0 0 0
0 0 0 0 0 0 0 0 0 0 0 0 0 0 0 0 0 0 1 1 1 1 1 1 1 1 1 1 1 1 1 1 1 1 1 1 1 1 1 1 0 0 0 0
0 0 0 0 0 0 0 0 0 0 0 0 0 0 0 0 0 0 1 1 1 1 1 1 1 1 1 1 1 2 2 2 1 1 1 1 1 1 1 1 0 0 0 0
0 0 0 0 0 0 0 0 0 0 0 0 0 0 0 0 0 0 1 1 1 1 1 1 1 1 1 1 2 2 2 2 2 1 1 1 1 1 1 1 1 1 0 0
0 0 0 0 0 0 0 0 0 0 0 0 0 0 0 0 0 0 1 1 1 1 1 1 1 1 1 2 2 2 2 2 2 2 1 1 1 1 1 1 1 1 1 0
0 0 0 0 0 0 0 0 0 0 0 0 0 0 0 0 0 1 1 1 1 1 1 1 1 1 2 2 2 2 2 2 2 2 2 2 1 1 1 1 1 1 1 1
0 0 0 0 0 0 0 0 0 0 0 0 0 0 0 0 1 1 1 1 1 1 1 1 1 1 1 2 2 2 2 2 2 2 2 2 1 1 1 1 1 1 1 1
0 0 0 0 0 0 0 0 0 0 0 0 0 0 0 0 1 1 1 1 1 1 1 1 1 1 1 1 2 2 2 2 2 2 2 2 1 1 1 1 1 1 1 1
0 0 0 0 0 0 0 0 0 0 0 0 0 0 0 0 0 0 0 1 1 1 1 1 1 2 2 2 2 2 2 2 2 2 2 1 1 1 1 1 1 1 1 1
0 0 0 0 0 0 0 0 0 0 0 0 0 0 0 0 0 0 0 1 1 1 1 1 2 2 2 2 2 2 2 2 2 2 1 1 1 1 1 1 1 1 1 1
0 0 0 0 0 0 0 0 0 0 0 0 0 0 0 0 0 0 0 1 1 1 1 1 2 2 2 2 2 2 2 2 2 2 2 1 1 1 1 1 1 1 1 1
0 0 0 0 0 0 0 0 0 0 0 0 0 0 0 0 0 0 0 1 1 1 1 1 2 2 2 2 2 2 2 2 2 2 2 2 2 1 1 1 1 1 1 1
0 0 0 0 0 0 0 0 0 0 0 0 0 0 0 0 0 0 0 1 1 1 1 1 1 1 2 2 2 2 2 2 2 2 2 2 2 1 1 1 1 1 1 1
0 0 0 0 0 0 0 0 0 0 0 0 0 0 0 0 0 0 1 1 1 1 1 1 1 1 1 2 2 2 2 2 1 1 2 2 1 1 1 1 1 1 1 1
0 0 0 0 0 0 0 0 0 0 0 0 0 0 0 0 0 0 1 1 1 1 1 1 1 2 2 2 2 2 2 2 2 1 2 2 1 1 1 1 1 1 1 1
0 0 0 0 0 0 0 0 0 0 0 0 0 0 0 1 1 1 1 1 1 1 1 1 2 2 2 2 2 2 2 2 2 2 2 2 1 1 1 1 1 1 1 1
0 0 0 0 0 0 0 0 0 0 0 0 0 1 1 1 1 1 1 1 1 1 1 2 2 2 3 3 3 2 2 2 2 2 2 2 1 1 1 1 1 1 1 1
0 0 0 0 0 0 0 0 0 0 0 0 0 0 1 1 1 1 1 1 1 1 2 2 2 3 3 3 3 3 2 2 2 2 2 2 2 2 2 1 1 1 1 1
0 0 0 0 0 0 0 0 0 0 0 0 0 0 0 1 1 1 1 2 2 2 2 2 3 3 3 3 3 3 2 2 2 2 2 2 2 2 2 1 1 1 1 1
0 0 0 0 0 0 0 0 0 0 0 0 0 0 1 1 1 1 1 2 2 2 2 2 3 3 3 3 3 3 2 2 2 2 2 1 1 1 1 1 1 1 1 1
0 0 0 0 0 0 1 0 0 0 0 0 0 0 1 1 1 1 2 2 2 2 2 2 3 3 3 3 2 2 2 2 2 2 1 1 1 1 1 1 1 1 1 1
Wind_Speed
12 11 12 11 9 10 9 8 5 4 4 5 4 7 11 13 12 14 13 13 13 13 14 13 12 12 12 10 9 7 6 6 4 3 2 2 2 1 2 3 3 2 1 2
12 14 14 13 10 9 10 9 8 5 4 5 5 6 8 11 13 14 14 13 14 14 14 13 13 13 13 12 10 8 7 7 5 3 2 2 2 2 2 2 2 2 1 1
16 12 11 11 10 11 11 10 9 7 7 6 5 5 7 8 9 11 13 13 14 15 15 14 13 13 13 12 11 9 8 7 6 5 3 2 2 1 2 3 2 1 2 1
16 14 13 12 11 12 11 10 9 9 8 6 7 6 8 11 11 11 12 13 14 14 15 16 14 13 13 13 12 9 8 7 6 5 4 5 4 2 2 2 2 2 2 1
15 14 14 14 12 11 12 11 11 12 11 10 10 8 7 10 11 13 12 13 12 14 16 16 15 14 13 13 13 11 9 7 7 5 5 4 3 3 2 3 3 2 2 2
17 14 14 14 12 12 12 13 13 12 10 12 10 9 5 6 9 11 12 12 11 12 13 14 14 12 11 12 12 12 10 8 7 6 5 4 4 3 3 3 3 2 2 2
18 17 15 13 13 13 13 12 9 9 8 9 8 8 3 4 5 8 10 11 11 11 13 13 14 14 11 11 12 12 12 10 9 8 6 5 4 4 4 3 3 2 2 2
16 15 14 14 14 13 12 13 11 10 8 6 8 6 4 5 5 6 9 11 11 11 12 13 13 13 12 12 11 12 12 10 10 8 6 5 5 4 3 3 3 2 1 2
13 12 11 13 14 14 14 13 12 12 13 9 7 6 5 6 6 5 7 9 9 10 10 12 13 13 12 11 11 12 11 10 9 8 7 6 5 4 3 4 3 2 1 2
14 12 12 10 11 14 15 13 9 10 9 10 8 7 2 4 6 6 6 9 10 10 9 8 9 12 12 12 12 11 11 10 9 8 7 7 6 4 3 4 3 2 2 1
15 14 13 11 12 13 13 15 13 10 9 10 8 4 2 3 4 6 7 7 8 9 9 9 8 9 10 10 11 11 11 11 10 9 7 6 6 5 4 4 3 3 2 3
12 12 12 13 13 13 15 14 13 11 10 11 9 4 3 4 3 5 6 7 5 6 7 8 8 8 9 9 9 9 9 11 10 8 7 6 5 5 5 4 4 3 3 3
7 10 12 13 12 13 13 12 12 12 10 10 10 4 5 6 5 5 5 7 5 5 7 7 7 8 8 8 8 8 8 9 9 8 8 6 6 6 5 4 4 4 3 3
6 12 13 13 8 7 9 11 12 12 10 9 10 6 4 3 3 4 6 7 6 5 5 7 7 7 7 7 6 6 7 7 8 8 8 7 6 6 5 4 4 4 3 3
9 13 13 13 13 12 11 12 13 14 13 12 10 8 5 3 3 3 4 5 6 6 6 6 7 6 6 6 6 6 5 6 6 7 7 7 6 5 4 4 4 4 4 4
10 12 12 13 15 14 14 14 15 15 13 12 11 8 4 3 1 3 4 5 6 6 5 6 6 7 6 6 6 6 5 5 6 6 6 6 6 5 4 4 4 4 3 3
8 9 11 13 13 15 17 13 12 11 10 9 10 8 5 3 5 4 3 3 5 5 5 6 6 6 6 5 6 6 5 6 6 5 5 5 5 5 5 5 4 4 4 4
10 9 9 12 12 18 12 10 10 9 9 8 8 6 5 4 3 3 3 2 3 5 5 5 5 7 7 6 6 5 6 5 5 5 5 5 5 4 4 4 4 4 3 4
12 10 10 11 14 16 13 9 9 10 8 6 5 4 2 2 2 3 4 3 4 4 4 4 4 5 6 6 6 5 6 6 5 5 5 5 5 4 4 4 4 3 3 3
13 11 11 12 15 15 9 6 7 9 7 5 5 5 4 3 4 2 2 4 3 4 4 4 4 5 6 6 7 6 6 6 5 5 5 4 4 4 4 4 3 3 3 3
12 12 13 14 16 12 8 7 7 9 4 4 6 5 4 4 3 2 2 2 2 3 4 5 4 4 4 4 6 6 5 5 4 3 4 4 4 4 4 4 3 3 3 3
11 10 12 12 15 10 6 6 6 3 2 2 3 4 4 5 5 4 2 2 2 2 4 5 5 5 4 4 5 5 4 4 4 4 4 4 4 4 4 4 4 3 3 3
10 9 7 8 6 2 4 4 5 4 2 2 2 2 2 3 2 2 2 2 1 3 3 3 4 4 4 4 4 5 4 4 5 4 4 4 4 3 4 4 4 4 3 3
7 8 9 8 7 6 5 5 4 5 4 4 4 4 3 2 1 1 1 1 1 2 3 3 4 4 3 3 3 4 4 4 4 4 4 4 4 4 4 4 4 4 3 3
9 9 9 9 8 7 7 6 6 5 5 5 4 3 3 3 2 1 1 1 1 1 1 2 3 3 4 3 2 3 4 4 4 4 4 4 4 5 4 3 2 3 2 2
9 9 9 8 6 6 6 6 7 6 5 6 6 4 3 3 2 1 1 1 2 1 1 2 2 2 3 3 2 2 3 3 4 4 4 4 3 3 4 4 3 2 2 3
Wind_Direction
231 236 245 249 240 255 270 284 292 275 205 223 205 182 181 179 179 174 178 178 177 176 170 165 165 159 154 153 156 160 161 149 158 167 171 161 157 158 123 122 122 129 143 143
237 237 245 257 262 262 267 276 271 266 253 239 220 215 201 190 192 184 179 181 183 177 170 166 168 165 162 159 160 162 167 161 173 170 170 166 151 166 125 100 125 143 131 122
241 243 247 250 257 260 262 264 267 268 265 255 247 239 204 207 211 194 183 183 185 179 173 171 174 171 165 163 168 172 170 164 177 169 170 162 137 134 118 131 146 149 129 140
245 242 247 250 249 256 262 267 271 268 266 261 242 242 213 200 203 202 194 186 189 181 175 173 177 176 171 169 169 165 164 164 170 176 177 172 169 168 151 149 145 152 152 153
244 241 240 246 247 256 267 278 276 274 269 266 255 251 225 197 202 199 193 187 188 178 174 175 176 177 176 171 168 164 160 163 167 180 181 185 172 163 150 140 137 165 159 155
252 250 248 246 244 246 261 272 267 264 264 263 262 258 234 215 197 196 189 181 177 170 170 170 168 168 176 171 166 163 160 163 168 182 179 183 176 167 156 153 156 182 161 162
244 244 244 246 248 240 240 251 258 257 247 256 266 259 205 221 210 190 178 171 170 170 168 167 168 166 171 169 166 163 162 167 171 179 180 181 180 173 163 175 172 191 175 165
241 240 234 229 239 249 245 250 254 266 271 268 260 242 203 199 198 172 161 160 164 171 169 171 170 169 169 168 163 161 163 170 174 179 180 177 178 187 182 183 181 197 184 163
249 248 236 230 233 241 250 248 257 269 275 275 262 246 187 185 174 152 151 151 163 164 168 172 168 168 169 169 165 165 162 169 176 181 178 176 182 187 183 175 191 187 174 171
253 260 250 238 239 236 245 258 260 259 270 272 264 261 236 191 166 156 165 165 167 161 162 161 165 167 171 173 168 167 164 169 174 179 181 180 181 185 186 182 181 173 166 158
250 254 251 239 230 241 235 243 251 262 266 272 268 260 163 207 193 170 168 165 158 161 162 162 165 166 167 169 168 169 167 168 174 181 178 176 175 184 186 183 176 173 173 174
248 255 257 250 237 234 246 247 248 250 256 265 272 258 155 159 161 166 162 145 155 161 157 158 161 165 167 166 168 167 170 173 174 172 167 169 167 173 180 180 174 177 179 180
280 259 255 253 239 223 235 245 254 261 259 259 265 245 159 164 166 152 138 136 145 160 152 159 162 164 163 158 159 163 172 175 171 169 168 168 180 181 182 182 177 177 179 184
280 257 254 260 266 260 244 250 253 257 258 258 258 260 243 187 177 156 143 147 144 155 156 159 150 148 147 146 149 156 169 166 167 165 169 172 182 184 182 181 178 178 183 190
261 258 260 267 270 268 259 251 247 248 254 261 259 251 251 216 195 171 140 145 150 161 169 152 146 139 138 139 145 149 160 162 162 162 170 177 179 178 176 177 177 180 188 193
263 269 273 264 263 263 263 253 250 249 248 254 266 265 250 228 194 161 155 152 150 163 160 142 141 142 144 147 150 150 158 156 152 158 167 167 168 171 175 179 174 181 190 189
270 276 277 272 272 271 257 256 257 260 260 253 260 263 252 209 206 192 168 162 156 157 155 147 150 151 155 152 148 154 159 154 152 154 160 160 165 171 174 187 179 188 192 193
261 273 271 269 269 262 264 274 276 267 263 263 256 246 231 228 207 157 139 153 154 159 158 152 163 159 158 157 150 155 157 154 157 161 162 164 168 173 177 175 180 188 190 195
248 252 261 266 261 257 258 263 262 263 263 276 282 287 256 202 221 152 129 135 145 148 148 156 170 157 144 155 155 158 165 164 166 168 168 169 170 177 178 176 181 183 185 191
236 238 248 252 259 260 266 285 298 283 265 292 297 296 288 254 241 218 137 134 151 149 152 150 155 150 150 156 154 160 169 167 173 175 173 170 171 178 180 177 177 183 186 195
229 230 241 250 255 258 281 288 281 266 281 350 342 340 320 319 337 63 116 129 145 148 150 147 148 145 146 153 151 160 170 173 171 171 171 169 175 182 171 166 177 181 189 194
253 240 237 247 255 258 307 299 290 312 15 2 344 6 6 1 17 38 61 103 132 145 151 149 137 134 142 155 158 167 166 160 157 166 172 171 177 190 174 168 180 184 185 192
261 269 263 256 256 270 305 300 301 317 322 325 315 349 6 345 11 25 33 39 79 131 132 144 137 133 139 150 160 170 159 152 158 167 171 171 180 179 162 170 179 184 187 204
276 300 284 274 266 283 294 293 302 314 323 322 332 348 343 339 337 10 15 8 44 108 136 147 141 142 138 145 158 155 149 153 161 167 172 175 175 173 163 176 186 188 186 196
292 294 290 280 280 280 280 294 301 314 318 313 307 311 321 326 330 353 344 359 47 67 106 127 140 146 144 136 147 153 146 156 166 171 179 189 188 180 167 166 177 185 178 191
273 277 277 284 307 299 304 303 289 290 297 296 295 306 305 304 304 302 282 156 152 175 145 147 162 157 153 152 156 156 157 167 173 181 191 203 198 177 171 169 152 83 141 145